FW3030 Weather Reports


Display with metric or nautical units.
time (UTC)temp
F
wind
direction
speed
MPH
gust
MPH
rain 1hr
in
rain 24hr
in
rain mn
in
humidity
%
barometer
mb
20260902123103 63 27 0.0 2.0 0.00 0.00 0.00 87 1013.9
20260902121600 63 0 0.0 3.0 0.00 0.00 0.00 86 1013.8
20260902120101 63 0 0.0 1.0 0.00 0.00 0.00 86 1013.6
20260902114604 63 0 0.0 1.0 0.00 0.00 0.00 85 1013.7
20260902113109 63 0 0.0 0.0 0.00 0.00 0.00 84 1013.8
20260902111601 63 0 0.0 0.0 0.00 0.00 0.00 84 1013.6
20260902110103 63 0 0.0 0.0 0.00 0.00 0.00 83 1013.8
20260902104600 63 0 0.0 0.0 0.00 0.00 0.00 82 1013.7
20260902103103 64 0 0.0 0.0 0.00 0.00 0.00 82 1013.5
20260902101603 64 0 0.0 1.0 0.00 0.00 0.00 82 1013.3
20260902100106 65 69 0.0 1.0 0.00 0.00 0.00 81 1013.2
20260902094605 65 0 0.0 1.0 0.00 0.00 0.00 79 1013.7
20260902093101 66 0 0.0 0.0 0.00 0.00 0.00 79 1013.4
20260902091605 66 0 0.0 1.0 0.00 0.00 0.00 78 1013.4
20260902084609 67 0 0.0 0.0 0.00 0.00 0.00 77 1013.6
20260902083108 68 0 0.0 0.0 0.00 0.00 0.00 77 1013.6
20260902081603 68 0 0.0 1.0 0.00 0.00 0.00 77 1013.5
20260902074614 67 0 0.0 2.0 0.00 0.00 0.00 77 1013.0
20260902073101 67 0 0.0 3.0 0.00 0.00 0.00 78 1012.8
20260902071602 67 80 0.0 0.0 0.00 0.00 0.00 79 1013.1
20260902064605 68 0 0.0 0.0 0.00 0.00 0.00 77 1013.1
20260902063116 68 0 0.0 0.0 0.00 0.00 0.00 77 1013.3
20260902061608 68 0 0.0 2.0 0.00 0.00 0.00 77 1013.3
20260902060131 68 0 0.0 2.0 0.00 0.00 0.00 78 1013.5
20260902054611 69 0 0.0 1.0 0.00 0.00 0.00 78 1013.6
20260902053107 69 0 0.0 1.0 0.00 0.00 0.00 78 1013.7
20260902051603 69 0 0.0 1.0 0.00 0.00 0.00 77 1013.9
20260902050103 70 0 0.0 2.0 0.00 0.00 0.00 76 1014.0
20260902044612 70 0 0.0 0.0 0.00 0.00 0.00 74 1014.2
20260902043115 70 0 0.0 0.0 0.00 0.00 0.00 74 1014.1
20260902041611 70 0 0.0 0.0 0.00 0.00 0.00 74 1013.9
20260902040105 71 0 0.0 0.0 0.00 0.00 0.00 74 1013.9
20260902034617 71 0 0.0 0.0 0.00 0.00 0.00 74 1014.2
20260902033101 71 0 0.0 0.0 0.00 0.00 0.00 72 1014.2
20260902031607 72 0 0.0 0.0 0.00 0.00 0.00 71 1014.2
20260902030105 72 0 0.0 0.0 0.00 0.00 0.00 70 1014.2
20260902024604 73 0 0.0 0.0 0.00 0.00 0.00 69 1014.3
20260902023104 73 0 0.0 0.0 0.00 0.00 0.00 68 1014.1
20260902021608 73 0 0.0 1.0 0.00 0.00 0.00 68 1013.9
20260902014600 75 0 0.0 0.0 0.00 0.00 0.00 63 1013.8
20260902013101 75 0 0.0 0.0 0.00 0.00 0.00 60 1013.7
20260902011603 76 0 0.0 0.0 0.00 0.00 0.00 59 1013.4
20260902004605 78 0 0.0 0.0 0.00 0.00 0.00 56 1013.5
20260902003135 78 0 0.0 1.0 0.00 0.00 0.00 55 1013.2
20260902001606 79 0 0.0 1.0 0.00 0.00 0.00 54 1013.3
20260902000105 80 0 0.0 0.0 0.00 0.00 0.00 52 1013.7
20260901234603 80 263 0.0 1.0 0.00 0.00 0.00 50 1013.8
20260901233101 81 0 0.0 3.0 0.00 0.00 0.00 50 1013.9
20260901231605 81 259 0.0 3.0 0.00 0.00 0.00 50 1013.9
20260901230104 82 279 0.0 3.0 0.00 0.00 0.00 49 1013.6
20260901224606 83 327 1.0 4.0 0.00 0.00 0.00 46 1013.9
20260901223101 83 0 0.0 4.0 0.00 0.00 0.00 45 1014.0
20260901221609 83 220 1.0 4.0 0.00 0.00 0.00 46 1013.8
20260901220106 82 0 0.0 4.0 0.00 0.00 0.00 49 1013.7
20260901214602 82 216 1.0 4.0 0.00 0.00 0.00 47 1013.7
20260901213105 82 285 1.0 3.0 0.00 0.00 0.00 47 1013.7
20260901211604 82 0 1.0 6.0 0.00 0.00 0.00 45 1013.7
20260901210132 83 348 2.0 6.0 0.00 0.00 0.00 42 1013.8
20260901204608 83 240 1.0 5.0 0.00 0.00 0.00 43 1013.7
20260901203103 84 207 1.0 4.0 0.00 0.00 0.00 43 1013.8
20260901201608 83 242 1.0 4.0 0.00 0.00 0.00 45 1014.0
20260901200104 82 251 0.0 4.0 0.00 0.00 0.00 48 1014.1
20260901194606 81 288 0.0 3.0 0.00 0.00 0.00 51 1014.3
20260901193107 81 119 0.0 3.0 0.00 0.00 0.00 49 1014.5
20260901191610 81 0 0.0 3.0 0.00 0.00 0.00 50 1014.3
20260901190136 81 0 0.0 4.0 0.00 0.00 0.00 50 1014.3
20260901184607 81 0 0.0 3.0 0.00 0.00 0.00 53 1014.4
20260901183108 81 0 0.0 3.0 0.00 0.00 0.00 52 1014.6
20260901181606 81 348 1.0 3.0 0.00 0.00 0.00 54 1014.7
20260901180104 80 0 0.0 2.0 0.00 0.00 0.00 55 1014.8
20260901174602 80 0 0.0 2.0 0.00 0.00 0.00 54 1015.0
20260901173106 80 267 1.0 4.0 0.00 0.00 0.00 55 1015.1
20260901171636 79 153 1.0 3.0 0.00 0.00 0.00 57 1015.2
20260901170108 77 0 0.0 4.0 0.00 0.00 0.00 60 1015.2
20260901164618 76 0 1.0 4.0 0.00 0.00 0.00 63 1015.2
20260901163117 75 0 0.0 2.0 0.00 0.00 0.00 64 1015.4
20260901161608 74 0 0.0 2.0 0.00 0.00 0.00 65 1015.4
20260901154605 72 350 0.0 2.0 0.00 0.00 0.00 71 1015.5
20260901153106 71 0 0.0 1.0 0.00 0.00 0.00 73 1015.3
20260901151607 70 360 0.0 3.0 0.00 0.00 0.00 74 1015.3
20260901150103 68 311 0.0 2.0 0.00 0.00 0.00 78 1015.6
20260901144606 67 0 0.0 3.0 0.00 0.00 0.00 80 1015.4
20260901143102 65 0 0.0 3.0 0.00 0.00 0.00 87 1015.4
20260901141602 64 0 0.0 4.0 0.00 0.00 0.00 90 1015.5
20260901140105 63 210 1.0 4.0 0.00 0.00 0.00 92 1015.6
20260901134605 63 239 0.0 3.0 0.00 0.00 0.00 93 1015.5
20260901133109 62 0 0.0 1.0 0.00 0.00 0.00 93 1015.6
20260901131602 61 61 0.0 1.0 0.00 0.00 0.00 93 1015.3
20260901130107 59 0 0.0 0.0 0.00 0.00 0.00 92 1015.0
20260901124606 58 0 0.0 0.0 0.00 0.00 0.00 91 1014.9